| time (UTC) | temp F | wind direction | speed MPH | gust MPH | rain 1hr in | rain 24hr in | rain mn in | humidity % | barometer mb |
| 20260902094518 | 0 | 0.0 | 0.0 | 0.00 | 0.00 | 0.00 | 1015.6 | ||
| 20260902094013 | 0 | 0.0 | 0.0 | 0.00 | 0.00 | 0.00 | 1015.5 | ||
| 20260902093426 | 0 | 0.0 | 0.0 | 0.00 | 0.00 | 0.00 | 1015.5 | ||
| 20260902092912 | 0 | 0.0 | 0.0 | 0.00 | 0.00 | 0.00 | 1015.7 | ||
| 20260902092320 | 0 | 0.0 | 0.0 | 0.00 | 0.00 | 0.00 | 1015.8 | ||
| 20260902091809 | 0 | 0.0 | 0.0 | 0.00 | 0.00 | 0.00 | 1015.9 | ||
| 20260902091303 | 0 | 0.0 | 0.0 | 0.00 | 0.00 | 0.00 | 1015.9 | ||
| 20260902090712 | 0 | 0.0 | 0.0 | 0.00 | 0.00 | 0.00 | 1015.9 | ||
| 20260902085021 | 0 | 0.0 | 0.0 | 0.00 | 0.00 | 0.00 | 1015.9 | ||
| 20260902084519 | 0 | 0.0 | 0.0 | 0.00 | 0.00 | 0.00 | 1015.8 | ||
| 20260902083925 | 0 | 0.0 | 0.0 | 0.00 | 0.00 | 0.00 | 1015.9 | ||
| 20260902083359 | 0 | 0.0 | 0.0 | 0.00 | 0.00 | 0.00 | 1016.0 | ||
| 20260902082822 | 0 | 0.0 | 0.0 | 0.00 | 0.00 | 0.00 | 1016.0 | ||
| 20260902082225 | 0 | 0.0 | 0.0 | 0.00 | 0.00 | 0.00 | 1016.0 | ||
| 20260902081723 | 0 | 0.0 | 0.0 | 0.00 | 0.00 | 0.00 | 1015.9 | ||
| 20260902081224 | 68 | 195 | 2.0 | 6.0 | 0.00 | 0.00 | 0.00 | 93 | 1015.8 |
| 20260902080217 | 68 | 195 | 2.0 | 5.0 | 0.00 | 0.00 | 0.00 | 93 | 1016.0 |
| 20260902075715 | 68 | 195 | 2.0 | 6.0 | 0.00 | 0.00 | 0.00 | 93 | 1016.0 |
| 20260902075211 | 69 | 156 | 3.0 | 6.0 | 0.00 | 0.00 | 0.00 | 93 | 1015.9 |
| 20260902074711 | 69 | 166 | 3.0 | 6.0 | 0.00 | 0.00 | 0.00 | 93 | 1015.9 |
| 20260902074211 | 69 | 163 | 4.0 | 7.0 | 0.00 | 0.00 | 0.00 | 93 | 1015.8 |
| 20260902073707 | 69 | 149 | 4.0 | 8.0 | 0.00 | 0.00 | 0.00 | 93 | 1015.7 |
| 20260902073207 | 69 | 187 | 5.0 | 8.0 | 0.00 | 0.00 | 0.00 | 93 | 1015.7 |
| 20260902072707 | 69 | 154 | 5.0 | 10.0 | 0.00 | 0.00 | 0.00 | 94 | 1015.7 |
| 20260902071707 | 69 | 147 | 5.0 | 8.0 | 0.00 | 0.00 | 0.00 | 94 | 1015.7 |
| 20260902071207 | 68 | 162 | 5.0 | 8.0 | 0.00 | 0.00 | 0.00 | 94 | 1015.6 |
| 20260902070707 | 68 | 160 | 4.0 | 8.0 | 0.00 | 0.00 | 0.00 | 94 | 1015.7 |
| 20260902070207 | 68 | 173 | 3.0 | 7.0 | 0.00 | 0.00 | 0.00 | 94 | 1015.7 |
| 20260902065707 | 68 | 163 | 3.0 | 6.0 | 0.00 | 0.00 | 0.00 | 95 | 1015.6 |
| 20260902064202 | 68 | 157 | 4.0 | 8.0 | 0.00 | 0.00 | 0.00 | 95 | 1015.6 |
| 20260902063703 | 68 | 166 | 3.0 | 7.0 | 0.00 | 0.00 | 0.00 | 95 | 1015.7 |
| 20260902063203 | 68 | 157 | 1.0 | 7.0 | 0.00 | 0.00 | 0.00 | 96 | 1015.7 |
| 20260902062703 | 67 | 161 | 1.0 | 5.0 | 0.00 | 0.00 | 0.00 | 96 | 1015.8 |
| 20260902062203 | 66 | 38 | 1.0 | 4.0 | 0.00 | 0.00 | 0.00 | 96 | 1015.9 |
| 20260902060703 | 63 | 5 | 0.0 | 0.0 | 0.00 | 0.00 | 0.00 | 94 | 1015.7 |
| 20260902060203 | 62 | 5 | 0.0 | 0.0 | 0.00 | 0.00 | 0.00 | 94 | 1015.8 |
| 20260902055203 | 62 | 5 | 0.0 | 0.0 | 0.00 | 0.00 | 0.00 | 93 | 1015.8 |
| 20260902054703 | 62 | 5 | 0.0 | 0.0 | 0.00 | 0.00 | 0.00 | 93 | 1015.8 |
| 20260902054202 | 62 | 5 | 0.0 | 0.0 | 0.00 | 0.00 | 0.00 | 93 | 1015.9 |
| 20260902053203 | 63 | 5 | 0.0 | 0.0 | 0.00 | 0.00 | 0.00 | 92 | 1015.8 |
| 20260902052703 | 63 | 5 | 0.0 | 0.0 | 0.00 | 0.00 | 0.00 | 92 | 1015.7 |
| 20260902052200 | 63 | 5 | 0.0 | 0.0 | 0.00 | 0.00 | 0.00 | 92 | 1015.7 |
| 20260902051701 | 63 | 5 | 0.0 | 0.0 | 0.00 | 0.00 | 0.00 | 92 | 1015.7 |
| 20260902051159 | 63 | 5 | 0.0 | 0.0 | 0.00 | 0.00 | 0.00 | 92 | 1015.7 |
| 20260902045653 | 64 | 5 | 0.0 | 0.0 | 0.00 | 0.00 | 0.00 | 92 | 1015.8 |
| 20260902045151 | 64 | 5 | 0.0 | 0.0 | 0.00 | 0.00 | 0.00 | 92 | 1015.7 |
| 20260902044651 | 64 | 5 | 0.0 | 0.0 | 0.00 | 0.00 | 0.00 | 91 | 1015.6 |
| 20260902044156 | 64 | 5 | 0.0 | 0.0 | 0.00 | 0.00 | 0.00 | 91 | 1015.5 |
| 20260902043648 | 64 | 5 | 0.0 | 0.0 | 0.00 | 0.00 | 0.00 | 91 | 1015.6 |
| 20260902043149 | 64 | 5 | 0.0 | 0.0 | 0.00 | 0.00 | 0.00 | 91 | 1015.6 |
| 20260902042647 | 64 | 5 | 0.0 | 0.0 | 0.00 | 0.00 | 0.00 | 91 | 1015.6 |
| 20260902042147 | 64 | 5 | 0.0 | 0.0 | 0.00 | 0.00 | 0.00 | 91 | 1015.6 |
| 20260902041645 | 64 | 5 | 0.0 | 0.0 | 0.00 | 0.00 | 0.00 | 90 | 1015.6 |
| 20260902041145 | 64 | 5 | 0.0 | 0.0 | 0.00 | 0.00 | 0.00 | 90 | 1015.5 |
| 20260902040643 | 64 | 5 | 0.0 | 0.0 | 0.00 | 0.00 | 0.00 | 90 | 1015.5 |
| 20260902040136 | 64 | 5 | 0.0 | 0.0 | 0.00 | 0.00 | 0.00 | 90 | 1015.4 |
| 20260902035630 | 64 | 5 | 0.0 | 0.0 | 0.00 | 0.00 | 0.00 | 89 | 1015.4 |
| 20260902035124 | 64 | 5 | 0.0 | 0.0 | 0.00 | 0.00 | 0.00 | 89 | 1015.5 |
| 20260902034619 | 65 | 0 | 0.0 | 0.0 | 0.00 | 0.00 | 0.00 | 89 | 1015.5 |
| 20260902034112 | 65 | 0 | 0.0 | 0.0 | 0.00 | 0.00 | 0.00 | 89 | 1015.5 |
| 20260902033606 | 65 | 0 | 0.0 | 0.0 | 0.00 | 0.00 | 0.00 | 89 | 1015.4 |
| 20260902033101 | 65 | 0 | 0.0 | 0.0 | 0.00 | 0.00 | 0.00 | 89 | 1015.5 |
| 20260902032557 | 65 | 0 | 0.0 | 0.0 | 0.00 | 0.00 | 0.00 | 89 | 1015.4 |
| 20260902031542 | 65 | 0 | 0.0 | 0.0 | 0.00 | 0.00 | 0.00 | 89 | 1015.5 |
| 20260902031037 | 65 | 0 | 0.0 | 0.0 | 0.00 | 0.00 | 0.00 | 89 | 1015.5 |
| 20260902030530 | 65 | 0 | 0.0 | 0.0 | 0.00 | 0.00 | 0.00 | 89 | 1015.4 |
| 20260902030024 | 65 | 0 | 0.0 | 0.0 | 0.00 | 0.00 | 0.00 | 89 | 1015.4 |
| 20260902025518 | 65 | 0 | 0.0 | 0.0 | 0.00 | 0.00 | 0.00 | 89 | 1015.3 |
| 20260902025012 | 65 | 0 | 0.0 | 0.0 | 0.00 | 0.00 | 0.00 | 89 | 1015.2 |
| 20260902024506 | 65 | 0 | 0.0 | 0.0 | 0.00 | 0.00 | 0.00 | 89 | 1015.2 |
| 20260902024001 | 65 | 0 | 0.0 | 0.0 | 0.00 | 0.00 | 0.00 | 89 | 1015.3 |
| 20260902023454 | 65 | 0 | 0.0 | 0.0 | 0.00 | 0.00 | 0.00 | 88 | 1015.3 |
| 20260902022948 | 65 | 0 | 0.0 | 0.0 | 0.00 | 0.00 | 0.00 | 88 | 1015.3 |
| 20260902021936 | 65 | 5 | 0.0 | 0.0 | 0.00 | 0.00 | 0.00 | 86 | 1015.4 |
| 20260902021430 | 66 | 5 | 0.0 | 0.0 | 0.00 | 0.00 | 0.00 | 85 | 1015.3 |
| 20260902020924 | 66 | 5 | 0.0 | 0.0 | 0.00 | 0.00 | 0.00 | 84 | 1015.2 |
| 20260902020418 | 67 | 0 | 0.0 | 0.0 | 0.00 | 0.00 | 0.00 | 83 | 1015.2 |
| 20260902015912 | 67 | 0 | 0.0 | 0.0 | 0.00 | 0.00 | 0.00 | 83 | 1015.2 |
| 20260902015406 | 67 | 0 | 0.0 | 0.0 | 0.00 | 0.00 | 0.00 | 82 | 1015.2 |
| 20260902014354 | 68 | 0 | 0.0 | 0.0 | 0.00 | 0.00 | 0.00 | 82 | 1015.2 |
| 20260902013848 | 68 | 355 | 0.0 | 0.0 | 0.00 | 0.00 | 0.00 | 81 | 1015.1 |
| 20260902013343 | 69 | 0 | 0.0 | 0.0 | 0.00 | 0.00 | 0.00 | 80 | 1015.1 |
| 20260902012836 | 69 | 0 | 0.0 | 0.0 | 0.00 | 0.00 | 0.00 | 79 | 1015.1 |
| 20260902012331 | 69 | 5 | 0.0 | 0.0 | 0.00 | 0.00 | 0.00 | 79 | 1015.0 |
| 20260902011824 | 69 | 9 | 0.0 | 0.0 | 0.00 | 0.00 | 0.00 | 78 | 1015.0 |
| 20260902011318 | 69 | 11 | 0.0 | 0.0 | 0.00 | 0.00 | 0.00 | 78 | 1015.0 |
| 20260902010812 | 69 | 5 | 0.0 | 0.0 | 0.00 | 0.00 | 0.00 | 78 | 1014.9 |
| 20260902005802 | 70 | 0 | 0.0 | 0.0 | 0.00 | 0.00 | 0.00 | 77 | 1014.7 |
| 20260902005254 | 70 | 12 | 0.0 | 0.0 | 0.00 | 0.00 | 0.00 | 77 | 1014.6 |
| 20260902004748 | 70 | 5 | 0.0 | 0.0 | 0.00 | 0.00 | 0.00 | 76 | 1014.5 |
| 20260902004242 | 70 | 0 | 0.0 | 0.0 | 0.00 | 0.00 | 0.00 | 76 | 1014.5 |
| 20260902003736 | 70 | 11 | 0.0 | 0.0 | 0.00 | 0.00 | 0.00 | 76 | 1014.5 |
| 20260902003231 | 70 | 5 | 0.0 | 0.0 | 0.00 | 0.00 | 0.00 | 76 | 1014.5 |
| 20260902002218 | 71 | 355 | 0.0 | 0.0 | 0.00 | 0.00 | 0.00 | 76 | 1014.7 |
| 20260902001206 | 71 | 331 | 1.0 | 4.0 | 0.00 | 0.00 | 0.00 | 75 | 1014.7 |
| 20260902000700 | 71 | 19 | 0.0 | 3.0 | 0.00 | 0.00 | 0.00 | 74 | 1014.5 |
| 20260902000154 | 71 | 19 | 0.0 | 1.0 | 0.00 | 0.00 | 0.00 | 74 | 1014.5 |
| 20260901235141 | 72 | 350 | 1.0 | 7.0 | 0.00 | 0.00 | 0.00 | 74 | 1014.8 |
| 20260901234634 | 72 | 5 | 0.0 | 7.0 | 0.00 | 0.00 | 0.00 | 73 | 1014.8 |
| 20260901234128 | 72 | 5 | 1.0 | 4.0 | 0.00 | 0.00 | 0.00 | 74 | 1014.9 |
| 20260901233622 | 72 | 29 | 2.0 | 4.0 | 0.00 | 0.00 | 0.00 | 73 | 1014.9 |
| 20260901233116 | 72 | 45 | 2.0 | 7.0 | 0.00 | 0.00 | 0.00 | 74 | 1014.9 |
| 20260901232610 | 73 | 350 | 2.0 | 7.0 | 0.00 | 0.00 | 0.00 | 73 | 1015.0 |
| 20260901232104 | 73 | 0 | 2.0 | 8.0 | 0.00 | 0.00 | 0.00 | 74 | 1014.9 |
| 20260901231052 | 73 | 348 | 1.0 | 5.0 | 0.00 | 0.00 | 0.00 | 73 | 1014.9 |
| 20260901230547 | 73 | 5 | 1.0 | 5.0 | 0.00 | 0.00 | 0.00 | 74 | 1014.9 |
| 20260901230040 | 73 | 17 | 2.0 | 6.0 | 0.00 | 0.00 | 0.00 | 74 | 1014.9 |
| 20260901225535 | 74 | 335 | 1.0 | 6.0 | 0.00 | 0.00 | 0.00 | 74 | 1014.8 |
| 20260901225028 | 74 | 355 | 1.0 | 6.0 | 0.00 | 0.00 | 0.00 | 75 | 1014.8 |
| 20260901224523 | 74 | 45 | 0.0 | 3.0 | 0.00 | 0.00 | 0.00 | 76 | 1014.9 |
| 20260901223512 | 75 | 0 | 0.0 | 3.0 | 0.00 | 0.00 | 0.00 | 76 | 1014.8 |
| 20260901223007 | 75 | 337 | 1.0 | 8.0 | 0.00 | 0.00 | 0.00 | 77 | 1014.7 |
| 20260901222458 | 75 | 355 | 1.0 | 8.0 | 0.00 | 0.00 | 0.00 | 77 | 1014.7 |
| 20260901221952 | 76 | 0 | 0.0 | 5.0 | 0.00 | 0.00 | 0.00 | 78 | 1014.7 |
| 20260901221446 | 76 | 336 | 0.0 | 5.0 | 0.00 | 0.00 | 0.00 | 79 | 1014.6 |
| 20260901220945 | 76 | 13 | 0.0 | 0.0 | 0.00 | 0.00 | 0.00 | 79 | 1014.5 |
| 20260901220434 | 76 | 13 | 0.0 | 0.0 | 0.00 | 0.00 | 0.00 | 80 | 1014.5 |
| 20260901215928 | 76 | 13 | 0.0 | 0.0 | 0.00 | 0.00 | 0.00 | 79 | 1014.5 |
| 20260901215422 | 77 | 13 | 0.0 | 0.0 | 0.00 | 0.00 | 0.00 | 78 | 1014.5 |
| 20260901214916 | 77 | 17 | 0.0 | 0.0 | 0.00 | 0.00 | 0.00 | 79 | 1014.5 |
| 20260901214410 | 77 | 339 | 0.0 | 0.0 | 0.00 | 0.00 | 0.00 | 78 | 1014.4 |
| 20260901213905 | 77 | 0 | 0.0 | 0.0 | 0.00 | 0.00 | 0.00 | 78 | 1014.4 |
| 20260901213359 | 78 | 355 | 0.0 | 0.0 | 0.00 | 0.00 | 0.00 | 79 | 1014.3 |
| 20260901212852 | 78 | 346 | 0.0 | 0.0 | 0.00 | 0.00 | 0.00 | 78 | 1014.3 |
| 20260901212347 | 78 | 346 | 0.0 | 0.0 | 0.00 | 0.00 | 0.00 | 77 | 1014.4 |
| 20260901211840 | 78 | 346 | 0.0 | 0.0 | 0.00 | 0.00 | 0.00 | 77 | 1014.3 |
| 20260901211334 | 78 | 0 | 0.0 | 0.0 | 0.00 | 0.00 | 0.00 | 77 | 1014.2 |
| 20260901210829 | 78 | 0 | 0.0 | 0.0 | 0.00 | 0.00 | 0.00 | 77 | 1014.3 |
| 20260901210323 | 79 | 0 | 0.0 | 0.0 | 0.00 | 0.00 | 0.00 | 77 | 1014.2 |
| 20260901205816 | 79 | 0 | 0.0 | 0.0 | 0.00 | 0.00 | 0.00 | 75 | 1014.3 |
| 20260901205311 | 79 | 0 | 0.0 | 0.0 | 0.00 | 0.00 | 0.00 | 75 | 1014.2 |
| 20260901204259 | 80 | 351 | 0.0 | 0.0 | 0.00 | 0.00 | 0.00 | 73 | 1014.2 |
| 20260901203752 | 80 | 0 | 0.0 | 0.0 | 0.00 | 0.00 | 0.00 | 72 | 1014.1 |
| 20260901203246 | 81 | 0 | 0.0 | 0.0 | 0.00 | 0.00 | 0.00 | 72 | 1014.0 |
| 20260901202740 | 81 | 0 | 0.0 | 0.0 | 0.00 | 0.00 | 0.00 | 71 | 1013.9 |
| 20260901202234 | 82 | 0 | 0.0 | 0.0 | 0.00 | 0.00 | 0.00 | 70 | 1013.8 |
| 20260901201730 | 82 | 5 | 0.0 | 0.0 | 0.00 | 0.00 | 0.00 | 72 | 1013.8 |
| 20260901201223 | 82 | 5 | 0.0 | 1.0 | 0.00 | 0.00 | 0.00 | 72 | 1013.9 |
| 20260901200716 | 81 | 0 | 0.0 | 1.0 | 0.00 | 0.00 | 0.00 | 74 | 1013.9 |
| 20260901200210 | 81 | 340 | 0.0 | 0.0 | 0.00 | 0.00 | 0.00 | 74 | 1013.8 |
| 20260901195704 | 81 | 346 | 0.0 | 0.0 | 0.00 | 0.00 | 0.00 | 74 | 1013.9 |
| 20260901195158 | 81 | 355 | 0.0 | 0.0 | 0.00 | 0.00 | 0.00 | 73 | 1014.0 |
| 20260901194652 | 81 | 10 | 0.0 | 0.0 | 0.00 | 0.00 | 0.00 | 75 | 1014.0 |
| 20260901194146 | 81 | 10 | 0.0 | 0.0 | 0.00 | 0.00 | 0.00 | 73 | 1014.3 |
| 20260901193640 | 81 | 350 | 0.0 | 2.0 | 0.00 | 0.00 | 0.00 | 72 | 1014.2 |
| 20260901193135 | 81 | 337 | 0.0 | 2.0 | 0.00 | 0.00 | 0.00 | 72 | 1014.1 |
| 20260901192629 | 82 | 355 | 0.0 | 3.0 | 0.00 | 0.00 | 0.00 | 71 | 1014.0 |
| 20260901192124 | 81 | 343 | 1.0 | 5.0 | 0.00 | 0.00 | 0.00 | 72 | 1014.1 |
| 20260901191625 | 81 | 11 | 0.0 | 5.0 | 0.00 | 0.00 | 0.00 | 73 | 1014.2 |
| 20260901191124 | 81 | 126 | 0.0 | 0.0 | 0.00 | 0.00 | 0.00 | 75 | 1014.1 |
| 20260901190625 | 81 | 126 | 0.0 | 0.0 | 0.00 | 0.00 | 0.00 | 73 | 1014.2 |
| 20260901190124 | 81 | 338 | 0.0 | 0.0 | 0.00 | 0.00 | 0.00 | 74 | 1014.1 |
| 20260901185625 | 80 | 339 | 0.0 | 0.0 | 0.00 | 0.00 | 0.00 | 74 | 1014.1 |
| 20260901185124 | 80 | 49 | 0.0 | 0.0 | 0.00 | 0.00 | 0.00 | 75 | 1014.1 |
| 20260901184624 | 80 | 342 | 0.0 | 0.0 | 0.00 | 0.00 | 0.00 | 74 | 1014.1 |
| 20260901184123 | 80 | 342 | 0.0 | 0.0 | 0.00 | 0.00 | 0.00 | 72 | 1014.2 |
| 20260901183622 | 81 | 268 | 0.0 | 0.0 | 0.00 | 0.00 | 0.00 | 71 | 1014.2 |
| 20260901183122 | 81 | 350 | 0.0 | 1.0 | 0.00 | 0.00 | 0.00 | 73 | 1014.3 |
| 20260901182623 | 81 | 355 | 0.0 | 1.0 | 0.00 | 0.00 | 0.00 | 71 | 1014.3 |
| 20260901181619 | 81 | 9 | 0.0 | 3.0 | 0.00 | 0.00 | 0.00 | 73 | 1014.2 |
| 20260901180618 | 81 | 355 | 0.0 | 1.0 | 0.00 | 0.00 | 0.00 | 75 | 1014.3 |
| 20260901180119 | 81 | 9 | 0.0 | 1.0 | 0.00 | 0.00 | 0.00 | 75 | 1014.3 |
| 20260901175617 | 80 | 341 | 0.0 | 1.0 | 0.00 | 0.00 | 0.00 | 75 | 1014.3 |
| 20260901175114 | 80 | 134 | 0.0 | 0.0 | 0.00 | 0.00 | 0.00 | 75 | 1014.3 |
| 20260901174112 | 79 | 325 | 0.0 | 4.0 | 0.00 | 0.00 | 0.00 | 78 | 1014.2 |
| 20260901173110 | 78 | 329 | 0.0 | 1.0 | 0.00 | 0.00 | 0.00 | 79 | 1014.3 |
| 20260901172612 | 78 | 340 | 0.0 | 1.0 | 0.00 | 0.00 | 0.00 | 81 | 1014.3 |
| 20260901172110 | 78 | 342 | 0.0 | 0.0 | 0.00 | 0.00 | 0.00 | 82 | 1014.3 |
| 20260901171608 | 78 | 355 | 0.0 | 0.0 | 0.00 | 0.00 | 0.00 | 80 | 1014.4 |
| 20260901171111 | 78 | 0 | 0.0 | 4.0 | 0.00 | 0.00 | 0.00 | 80 | 1014.5 |
| 20260901170606 | 77 | 5 | 0.0 | 4.0 | 0.00 | 0.00 | 0.00 | 82 | 1014.5 |
| 20260901170106 | 77 | 0 | 0.0 | 2.0 | 0.00 | 0.00 | 0.00 | 80 | 1014.6 |
| 20260901165103 | 77 | 10 | 0.0 | 1.0 | 0.00 | 0.00 | 0.00 | 81 | 1014.6 |
| 20260901164604 | 77 | 320 | 0.0 | 0.0 | 0.00 | 0.00 | 0.00 | 83 | 1014.6 |
| 20260901163602 | 76 | 231 | 0.0 | 0.0 | 0.00 | 0.00 | 0.00 | 84 | 1014.7 |
| 20260901162602 | 75 | 97 | 0.0 | 1.0 | 0.00 | 0.00 | 0.00 | 89 | 1014.7 |
| 20260901162102 | 74 | 346 | 0.0 | 0.0 | 0.00 | 0.00 | 0.00 | 89 | 1014.7 |
| 20260901161603 | 74 | 67 | 0.0 | 0.0 | 0.00 | 0.00 | 0.00 | 88 | 1014.8 |
| 20260901161103 | 74 | 5 | 0.0 | 0.0 | 0.00 | 0.00 | 0.00 | 88 | 1014.7 |
| 20260901155558 | 73 | 0 | 0.0 | 5.0 | 0.00 | 0.00 | 0.00 | 89 | 1014.8 |
| 20260901155057 | 73 | 355 | 0.0 | 1.0 | 0.00 | 0.00 | 0.00 | 89 | 1014.9 |
| 20260901154558 | 73 | 355 | 0.0 | 1.0 | 0.00 | 0.00 | 0.00 | 89 | 1014.9 |
| 20260901154058 | 73 | 36 | 0.0 | 4.0 | 0.00 | 0.00 | 0.00 | 91 | 1014.9 |
| 20260901153557 | 73 | 351 | 0.0 | 4.0 | 0.00 | 0.00 | 0.00 | 91 | 1014.9 |
| 20260901153058 | 73 | 293 | 0.0 | 3.0 | 0.00 | 0.00 | 0.00 | 94 | 1015.0 |
| 20260901152559 | 73 | 15 | 0.0 | 3.0 | 0.00 | 0.00 | 0.00 | 94 | 1015.0 |
| 20260901151558 | 72 | 66 | 0.0 | 0.0 | 0.00 | 0.00 | 0.00 | 97 | 1015.0 |
| 20260901151054 | 71 | 17 | 0.0 | 5.0 | 0.00 | 0.00 | 0.00 | 97 | 1015.0 |
| 20260901150553 | 70 | 0 | 0.0 | 5.0 | 0.00 | 0.00 | 0.00 | 97 | 1015.2 |
| 20260901150054 | 70 | 15 | 0.0 | 2.0 | 0.00 | 0.00 | 0.00 | 97 | 1015.3 |
| 20260901145054 | 69 | 19 | 0.0 | 6.0 | 0.00 | 0.00 | 0.00 | 97 | 1015.3 |
| 20260901144554 | 69 | 351 | 0.0 | 1.0 | 0.00 | 0.00 | 0.00 | 97 | 1015.2 |
| 20260901144054 | 68 | 0 | 0.0 | 1.0 | 0.00 | 0.00 | 0.00 | 97 | 1015.2 |
| 20260901143554 | 68 | 16 | 0.0 | 5.0 | 0.00 | 0.00 | 0.00 | 97 | 1015.2 |
| 20260901143054 | 68 | 351 | 0.0 | 5.0 | 0.00 | 0.00 | 0.00 | 97 | 1015.2 |
| 20260901142554 | 68 | 355 | 0.0 | 3.0 | 0.00 | 0.00 | 0.00 | 98 | 1015.1 |
| 20260901141553 | 67 | 33 | 0.0 | 2.0 | 0.00 | 0.00 | 0.00 | 98 | 1015.1 |
| 20260901141052 | 66 | 355 | 0.0 | 1.0 | 0.00 | 0.00 | 0.00 | 98 | 1015.2 |
| 20260901140552 | 66 | 27 | 0.0 | 6.0 | 0.00 | 0.00 | 0.00 | 97 | 1015.1 |
| 20260901140050 | 65 | 5 | 0.0 | 6.0 | 0.00 | 0.00 | 0.00 | 97 | 1015.1 |
| 20260901134048 | 65 | 19 | 0.0 | 4.0 | 0.00 | 0.00 | 0.00 | 97 | 1015.2 |
| 20260901133549 | 65 | 40 | 0.0 | 0.0 | 0.00 | 0.00 | 0.00 | 97 | 1015.3 |
| 20260901133045 | 65 | 355 | 0.0 | 0.0 | 0.00 | 0.00 | 0.00 | 97 | 1015.3 |
| 20260901132544 | 64 | 355 | 0.0 | 2.0 | 0.00 | 0.00 | 0.00 | 97 | 1015.3 |
| 20260901132043 | 64 | 13 | 0.0 | 3.0 | 0.00 | 0.00 | 0.00 | 97 | 1015.2 |
| 20260901131537 | 65 | 21 | 0.0 | 3.0 | 0.00 | 0.00 | 0.00 | 97 | 1015.1 |
| 20260901131031 | 65 | 355 | 0.0 | 3.0 | 0.00 | 0.00 | 0.00 | 97 | 1015.1 |
| 20260901130022 | 65 | 342 | 0.0 | 0.0 | 0.00 | 0.00 | 0.00 | 97 | 1014.9 |
| 20260901125007 | 65 | 24 | 0.0 | 0.0 | 0.00 | 0.00 | 0.00 | 97 | 1014.6 |
| 20260901123955 | 65 | 348 | 0.0 | 0.0 | 0.00 | 0.00 | 0.00 | 97 | 1013.7 |
| 20260901123449 | 65 | 292 | 0.0 | 2.0 | 0.00 | 0.00 | 0.00 | 97 | 1013.2 |
| 20260901122943 | 65 | 252 | 0.0 | 4.0 | 0.00 | 0.00 | 0.00 | 97 | 1012.9 |
| 20260901122439 | 65 | 229 | 0.0 | 4.0 | 0.00 | 0.00 | 0.00 | 97 | 1012.8 |
| 20260901121931 | 65 | 221 | 0.0 | 5.0 | 0.00 | 0.00 | 0.00 | 97 | 1013.5 |
| 20260901121428 | 65 | 179 | 1.0 | 5.0 | 0.00 | 0.00 | 0.00 | 97 | 1013.3 |
| 20260901120927 | 65 | 221 | 1.0 | 5.0 | 0.00 | 0.00 | 0.00 | 97 | 1013.8 |
| 20260901120428 | 65 | 199 | 1.0 | 5.0 | 0.00 | 0.00 | 0.00 | 97 | 1013.9 |
| 20260901115927 | 65 | 0 | 0.0 | 1.0 | 0.00 | 0.00 | 0.00 | 97 | 1014.0 |
| 20260901115434 | 65 | 345 | 0.0 | 0.0 | 0.00 | 0.00 | 0.00 | 97 | 1014.5 |
| 20260901114930 | 65 | 355 | 0.0 | 0.0 | 0.00 | 0.00 | 0.00 | 97 | 1015.1 |
| 20260901114427 | 65 | 355 | 0.0 | 0.0 | 0.00 | 0.00 | 0.00 | 97 | 1015.2 |
| 20260901113926 | 65 | 11 | 0.0 | 0.0 | 0.00 | 0.00 | 0.00 | 96 | 1015.4 |
| 20260901113426 | 0 | 0.0 | 0.0 | 0.00 | 0.00 | 0.00 | 1015.0 | ||
| 20260901112913 | 0 | 0.0 | 0.0 | 0.00 | 0.00 | 0.00 | 1014.8 | ||
| 20260901112328 | 0 | 0.0 | 0.0 | 0.00 | 0.00 | 0.00 | 1014.8 | ||
| 20260901111820 | 0 | 0.0 | 0.0 | 0.00 | 0.00 | 0.00 | 1014.9 | ||
| 20260901111228 | 0 | 0.0 | 0.0 | 0.00 | 0.00 | 0.00 | 1015.0 | ||
| 20260901110722 | 0 | 0.0 | 0.0 | 0.00 | 0.00 | 0.00 | 1014.8 | ||
| 20260901110216 | 0 | 0.0 | 0.0 | 0.00 | 0.00 | 0.00 | 1014.8 | ||
| 20260901105710 | 0 | 0.0 | 0.0 | 0.00 | 0.00 | 0.00 | 1014.7 | ||
| 20260901104626 | 0 | 0.0 | 0.0 | 0.00 | 0.00 | 0.00 | 1014.9 | ||
| 20260901104119 | 0 | 0.0 | 0.0 | 0.00 | 0.00 | 0.00 | 1014.8 | ||
| 20260901103523 | 0 | 0.0 | 0.0 | 0.00 | 0.00 | 0.00 | 1014.6 | ||
| 20260901103022 | 0 | 0.0 | 0.0 | 0.00 | 0.00 | 0.00 | 1015.3 | ||
| 20260901102520 | 0 | 0.0 | 0.0 | 0.00 | 0.00 | 0.00 | 1015.5 | ||
| 20260901101926 | 0 | 0.0 | 0.0 | 0.00 | 0.00 | 0.00 | 1015.0 | ||
| 20260901101329 | 0 | 0.0 | 0.0 | 0.00 | 0.00 | 0.00 | 1015.0 | ||
| 20260901100821 | 0 | 0.0 | 0.0 | 0.00 | 0.00 | 0.00 | 1015.1 | ||
| 20260901100319 | 0 | 0.0 | 0.0 | 0.00 | 0.00 | 0.00 | 1015.2 | ||
| 20260901095818 | 0 | 0.0 | 0.0 | 0.00 | 0.00 | 0.00 | 1015.2 | ||
| 20260901095220 | 0 | 0.0 | 0.0 | 0.00 | 0.00 | 0.00 | 1015.3 |